Home > Weather > Leuven > Past weeks

Flag for Belgium Weather for the Past 2 Weeks in Leuven, Belgium

Now
46 °F

Passing clouds.


Feels Like: 38 °F
Forecast: 38 / 47 °F
Wind: 25 mph from Southwest

Location: Brussels National Airport

Current Time: Feb 8, 2016 at 10:18:20 PM

Latest Report: Feb 8, 2016 at 9:50 PM


Visibility: N/A

Pressure: 29.42 "Hg

Humidity: 71%

Dew point: 37 °F

Location of LeuvenLocation

Historic Weather in Leuven — Graph

°F

Leuven Temperature Yesterday

Maximum temperature yesterday: 54 °F (at 1:20 AM)
Minimum temperature yesterday: 45 °F (at 6:50 AM)
Average temperature yesterday: 47 °F

High & Low Weather Summary for the Past Weeks

 TemperatureHumidityPressure
High57 °F (Jan 25, 12:50 PM)100% (Jan 24, 9:20 PM)30.39 "Hg (Jan 24, 9:20 PM)
Low37 °F (Jan 28, 6:50 PM)44% (Jan 25, 1:20 PM)29.24 "Hg (Feb 8, 6:50 AM)
Average47 °F83%29.99 "Hg
* Reported Jan 24 8:20 PM — Feb 8 8:50 PM, Leuven, Weather by CustomWeather, © 2016

Note: Actual official high and low records may vary slightly from our data, if they occured in-between our weather recording intervals... More about our weather records

Advertising

Leuven Weather History for the Previous 24 Hours

 ConditionsComfort  
Time TempWeatherWind HumidityBarometerVisibility
8:50 PM
Mon, Feb 8
46 °FPassing clouds.29 mph71%29.39 "HgN/A
8:20 PM46 °FPassing clouds.30 mph71%29.39 "HgN/A
7:50 PM45 °FSprinkles. Passing clouds.29 mph81%29.39 "HgN/A
7:20 PM46 °FRain showers. Partly cloudy.30 mph66%29.36 "Hg5 mi
6:50 PM46 °FPassing clouds.28 mph66%29.36 "HgN/A
6:20 PM46 °FPartly cloudy.29 mph66%29.33 "HgN/A
5:50 PM46 °FPartly cloudy.30 mph71%29.33 "HgN/A
5:20 PM45 °FSprinkles. Broken clouds.28 mph81%29.33 "Hg4 mi
4:50 PM45 °FSprinkles. Broken clouds.25 mph81%29.30 "Hg4 mi
4:20 PM46 °FPartly sunny.30 mph66%29.30 "HgN/A
3:50 PM46 °FScattered clouds.25 mph71%29.30 "HgN/A
3:20 PM46 °FPartly sunny.26 mph66%29.30 "HgN/A
2:50 PM46 °FScattered clouds.28 mph71%29.30 "HgN/A
2:20 PM46 °FPassing clouds.31 mph71%29.27 "HgN/A
1:50 PM45 °FScattered clouds.16 mph87%29.27 "HgN/A
1:20 PM46 °FSprinkles. Broken clouds.28 mph71%29.27 "Hg4 mi
12:50 PM46 °FPartly sunny.26 mph76%29.27 "HgN/A
12:20 PM46 °FPassing clouds.24 mph76%29.27 "HgN/A
11:50 AM45 °FPassing clouds.21 mph87%29.27 "HgN/A
11:20 AM45 °FLots of rain. Broken clouds.17 mph87%29.27 "Hg2 mi
10:50 AM46 °FLots of rain. Broken clouds.21 mph76%29.27 "Hg2 mi
10:20 AM48 °FSprinkles. Broken clouds.18 mph71%29.27 "Hg6 mi
9:50 AM48 °FPartly sunny.22 mph71%29.27 "HgN/A
9:20 AM48 °FPartly sunny.25 mph71%29.27 "HgN/A
8:50 AM48 °FScattered clouds.24 mph76%29.24 "HgN/A
8:20 AM48 °FPassing clouds.20 mph76%29.24 "HgN/A
7:50 AM48 °FPassing clouds.23 mph76%29.24 "HgN/A
7:20 AM48 °FSprinkles. Partly cloudy.25 mph76%29.24 "Hg6 mi
6:50 AM48 °FPassing clouds.20 mph82%29.24 "HgN/A
6:20 AM46 °FPassing clouds.16 mph87%29.27 "HgN/A
5:50 AM46 °FRain. Partly cloudy.25 mph82%29.30 "Hg5 mi
5:20 AM46 °FRain. Passing clouds.17 mph87%29.30 "Hg4 mi
4:50 AM46 °FLight rain. Partly cloudy.28 mph87%29.27 "HgN/A
4:20 AM46 °FRain. Partly cloudy.25 mph93%29.27 "Hg4 mi
3:50 AM46 °FRain. Partly cloudy.29 mph87%29.30 "Hg4 mi
3:20 AM46 °FLight rain. Partly cloudy.25 mph82%29.33 "HgN/A
2:50 AM46 °FPartly cloudy.24 mph82%29.33 "HgN/A
2:20 AM45 °FLight rain. Passing clouds.26 mph87%29.36 "HgN/A
1:50 AM46 °FLight rain. Passing clouds.26 mph76%29.39 "HgN/A
1:20 AM46 °FLight rain. Partly cloudy.26 mph76%29.42 "Hg6 mi
12:50 AM46 °FPassing clouds.24 mph71%29.42 "HgN/A
12:20 AM45 °FLight rain. Passing clouds.23 mph71%29.45 "HgN/A
11:50 PM
Sun, Feb 7
46 °FPassing clouds.21 mph66%29.47 "HgN/A
11:20 PM46 °FClear.22 mph66%29.50 "Hg10 mi
10:50 PM46 °FPassing clouds.23 mph66%29.50 "HgN/A
10:20 PM45 °FPassing clouds.18 mph71%29.53 "HgN/A
Weather by CustomWeather, © 2016

See weather overviewHow to use our weather pages